Penn Yan, NY

9:32 PM EST on November 19, 2017 (GMT -0500)
Penn Yan

Weather History for KPEO - November, 2012

Change the Weather History Date:

Tuesday, November 13, 2012

  Actual Average (KITH) Record (KITH)
Temperature  
Mean Temperature 38 °F -  
Max Temperature 42 °F 43 °F 68 °F (1964)
Min Temperature 35 °F 30 °F 15 °F (1996)
Degree Days  
Heating Degree Days 26    
Moisture  
Dew Point 28 °F    
Average Humidity 69    
Maximum Humidity 83    
Minimum Humidity 59    
Precipitation  
Precipitation 0.04 in - - ()
Sea Level Pressure  
Sea Level Pressure 30.38 in    
Wind  
Wind Speed 8 mph (WNW)    
Max Wind Speed 16 mph    
Max Gust Speed 22 mph    
Visibility 10 miles    
Events Rain    
Averages and records for this station are not official NWS values.
T = Trace of Precipitation, MM = Missing Value Source: NWS Daily Summary

Daily Weather History Graph

Daily Weather History Graph

Search for Another Location

Airport or City:

Trip Planner

Search our weather history database for the weather conditions in past years. The results will help you decide how hot, cold, wet, or windy it might be!

Date:

Astronomy

Nov. 13, 2012 Rise Set
Actual Time 6:57 AM EST 4:46 PM EST
Civil Twilight 6:27 AM EST 5:17 PM EST
Nautical Twilight 5:53 AM EST 5:51 PM EST
Astronomical Twilight 5:20 AM EST 6:24 PM EST
Moon 6:33 AM EST (11/13) 4:37 PM EST (11/13)
Length of Visible Light 10h 49m
Length of Day
9h 49m
Waning Crescent, 0% of the Moon is Illuminated
Nov 13
Waning Crescent
Nov 13
New
Nov 20
First Quarter
Nov 28
Full
Dec 6
Last Quarter

Hourly Weather History & Observations

Time (EST) Temp. Windchill Dew Point Humidity Pressure Visibility Wind Dir Wind Speed Gust Speed Precip Events Conditions
12:02 AM 42.8 °F 37.0 °F 37.4 °F 81% 30.19 in 10.0 mi WSW 10.4 mph - 0.00 in Rain Light Rain
12:53 AM 42.1 °F 34.2 °F 36.0 °F 79% 30.22 in 8.0 mi West 16.1 mph 21.9 mph 0.01 in Rain Light Rain
1:28 AM 39.2 °F 32.5 °F 33.8 °F 81% 30.22 in 10.0 mi WSW 10.4 mph 21.9 mph 0.03 in Rain Light Rain
1:53 AM 39.9 °F 35.8 °F 35.1 °F 83% 30.24 in 10.0 mi SW 5.8 mph - 0.03 in Rain Light Rain
2:53 AM 39.9 °F 33.9 °F 33.1 °F 77% 30.24 in 10.0 mi SW 9.2 mph - 0.00 in   Mostly Cloudy
3:53 AM 39.9 °F 34.5 °F 32.0 °F 73% 30.26 in 10.0 mi WSW 8.1 mph - N/A   Overcast
4:53 AM 39.0 °F 32.8 °F 30.9 °F 73% 30.26 in 10.0 mi WSW 9.2 mph - N/A   Overcast
5:53 AM 39.0 °F 32.8 °F 30.0 °F 70% 30.29 in 10.0 mi SW 9.2 mph - N/A   Overcast
6:37 AM 37.4 °F 30.3 °F 28.4 °F 70% 30.30 in 10.0 mi NW 10.4 mph - N/A   Overcast
6:53 AM 37.0 °F 31.0 °F 28.0 °F 70% 30.32 in 10.0 mi NW 8.1 mph - N/A   Overcast
7:53 AM 36.0 °F 33.3 °F 27.0 °F 70% 30.35 in 10.0 mi NW 3.5 mph - N/A   Overcast
8:35 AM 35.6 °F 29.9 °F 26.6 °F 70% 30.35 in 10.0 mi NW 6.9 mph - N/A   Overcast
8:53 AM 36.0 °F 30.3 °F 27.0 °F 70% 30.38 in 10.0 mi NW 6.9 mph - N/A   Overcast
9:20 AM 35.6 °F 27.5 °F 26.6 °F 70% 30.36 in 10.0 mi NW 11.5 mph - N/A   Overcast
9:53 AM 35.1 °F 29.3 °F 26.1 °F 70% 30.40 in 10.0 mi WNW 6.9 mph - 0.00 in   Overcast
10:10 AM 35.6 °F 29.2 °F 26.6 °F 70% 30.37 in 10.0 mi West 8.1 mph - N/A   Overcast
10:53 AM 36.0 °F 29.0 °F 26.1 °F 67% 30.41 in 10.0 mi West 9.2 mph - N/A   Overcast
11:53 AM 37.0 °F 31.6 °F 24.1 °F 59% 30.40 in 10.0 mi WNW 6.9 mph - N/A   Overcast
12:53 PM 37.9 °F 34.4 °F 26.1 °F 62% 30.40 in 10.0 mi WNW 4.6 mph - N/A   Overcast
1:42 PM 37.4 °F 30.8 °F 26.6 °F 65% 30.38 in 10.0 mi NW 9.2 mph - N/A   Overcast
1:53 PM 37.0 °F 31.6 °F 28.0 °F 70% 30.41 in 10.0 mi NW 6.9 mph - N/A   Overcast
2:53 PM 36.0 °F 29.6 °F 27.0 °F 70% 30.42 in 10.0 mi NW 8.1 mph - N/A   Overcast
3:53 PM 36.0 °F 30.3 °F 26.1 °F 67% 30.43 in 10.0 mi NW 6.9 mph - N/A   Overcast
4:53 PM 36.0 °F 32.1 °F 25.0 °F 64% 30.45 in 10.0 mi WNW 4.6 mph - N/A   Overcast
5:53 PM 36.0 °F 32.1 °F 24.1 °F 62% 30.47 in 10.0 mi NW 4.6 mph - N/A   Overcast
6:53 PM 35.1 °F - 25.0 °F 67% 30.49 in 10.0 mi Calm Calm - N/A   Overcast
7:53 PM 35.1 °F 31.0 °F 25.0 °F 67% 30.51 in 10.0 mi NNW 4.6 mph - N/A   Overcast
8:53 PM 35.1 °F - 24.1 °F 64% 30.53 in 10.0 mi Calm Calm - N/A   Overcast
9:53 PM 35.1 °F 32.2 °F 24.1 °F 64% 30.53 in 10.0 mi West 3.5 mph - N/A   Overcast
10:53 PM 35.1 °F 29.3 °F 21.9 °F 59% 30.53 in 10.0 mi West 6.9 mph - N/A   Overcast
11:53 PM 35.1 °F 29.3 °F 21.9 °F 59% 30.53 in 10.0 mi West 6.9 mph - N/A   Overcast